Regional Weather Roundup
Issued by NWS

Home | Current Version | Previous Version | Text Only | Print | Product List | Glossary On
Versions: 1 2 3 4 5 6 7 8 9 10 11 12 13 14 15 16 17 18 19 20 21 22 23 24 25 26 27 28 29 30 31 32 33 34 35 36 37 38 39 40 41 42 43 44 45 46 47 48 49 50
000
ASUS44 KJAN 041010
RWRMS

MISSISSIPPI HOURLY WEATHER ROUNDUP
NATIONAL WEATHER SERVICE JACKSON MS
400 AM CST SUN DEC 04 2016

NOTE: "FAIR: INDICATES FEW OR NO CLOUDS BELOW 12,000 FEET WITH NO
SIGNIFICANT WEATHER AND/OR OBSTRUCTIONS TO VISIBILITY.

MSZ001>002-007>008-010>013-018>021-025>028-034>036-041100-
NORTHWEST MISSISSIPPI

CITY           SKY/WX    TMP DP  RH WIND       PRES   REMARKS
CLEVELAND      DRIZZLE   45  45 100 NE7       30.01S
GREENWOOD      CLOUDY    46  44  93 NE8       29.98R
GREENVILLE     RAIN      46  42  86 NE9       29.99F FOG
OXFORD         CLOUDY    43  41  93 NE9G16    30.02F
WINONA         CLOUDY    44  43  98 E5        29.97R
$$

MSZ003>006-009-014>017-022>024-029>033-037>039-041100-
NORTHEAST MISSISSIPPI

CITY           SKY/WX    TMP DP  RH WIND       PRES   REMARKS
COLUMBUS AFB   LGT RAIN  46  43  87 NE9       30.01F
GOLDN TRIANGLE CLOUDY    45  39  81 NE10      29.95F
STARKVILLE     CLOUDY    45  43  93 NE7       30.00F
TUPELO         LGT RAIN  45  42  89 NE8       30.03F
$$

MSZ040-058-041100-
CENTRAL MISSISSIPPI

CITY           SKY/WX    TMP DP  RH WIND       PRES   REMARKS
JACKSON INTL   CLOUDY    50  45  83 VRB6      29.89R
JACKSON HAWKNS CLOUDY    49  45  86 E7        29.89R
MADISON        CLOUDY    48  45  87 E3        29.90S
MERIDIAN KEY   RAIN      48  43  82 E7        29.96F
MERIDIAN NAS   LGT RAIN  47  43  86 SE7       29.99F
VICKSBURG VKS  CLOUDY    48  48 100 N6        29.93R
$$

MSZ059>079-041100-
SOUTH MISSISSIPPI

CITY           SKY/WX    TMP DP  RH WIND       PRES   REMARKS
COLUMBIA       CLOUDY    52  50  93 CALM      29.97F
HATTIESBURG    CLOUDY    50  48  93 CALM      29.96F
LAUREL         CLOUDY    47  47 100 E6        29.96F
MCCOMB         LGT RAIN  52  50  93 SE9       29.92F
NATCHEZ        CLOUDY    48  45  87 N8        29.89R
PINE BELT      CLOUDY    48  45  87 E5        29.97F
$$

MSZ080>082-041100-
COASTAL MISSISSIPPI

CITY           SKY/WX    TMP DP  RH WIND       PRES   REMARKS
BILOXI         HVY RAIN  63  61  94 E13       29.89F FOG
PASCAGOULA     CLOUDY    62  52  69 E6        29.93F
GULFPORT       RAIN      65  62  90 E17       29.89F FOG
$$

LAZ007>009-015>016-023>026-041100-
NORTHEAST LOUISIANA

CITY           SKY/WX    TMP DP  RH WIND       PRES   REMARKS
BASTROP        CLOUDY    46  46  99 NE5       29.97F
TALLULAH/VBURG CLOUDY    48  46  93 N6        29.95R
VIDALIA        CLOUDY    49  48  97 N9        29.92S
$$



USA.gov is the U.S. government's official web portal to all federal, state and local government web resources and services.